Location: Gro� Glienicke
(52.4675°N, 13.1079°E)
Time: 19:11:16
(UTC+00:00)

COSMOS 2455 - Pass Details

Date: 06 July 2020
Orbit: 898 x 911 km, 67.1° (Epoch: 12 August)

Event Time Altitude Azimuth Distance (km) Brightness Sun altitude
Rises 21:43:52 0° 320° (NW) 3,551 7.4 -12.5°
Reaches altitude 10° 21:46:28 10° 325° (NW) 2,608 6.6 -12.7°
Maximum altitude 21:52:23 53° 42° (NE) 1,116 3.5 -13.0°
Drops below altitude 10° 21:58:16 10° 119° (ESE) 2,598 4.8 -13.2°
Enters shadow 21:58:41 - 120° (ESE) 2,743 4.9 -13.3°
